Find Starlink 2195

NORAD ID: 47772 Int'l Des: 2021-017 Owner: SPXS Country: US Constellation: starlink operational
LEOCIRCULAR

Live Position

Loading 3D Globe...

About Starlink 2195

Description loading...

Upcoming Passes

Passes for default location (London). Set your location on the main map for personalized predictions.

Altitude History

Loading altitude history...

Two-Line Element Set

1 47772U 21017BC 26107.00002315 -.00024681 00000-0 -78638-3 0 9993
2 47772 53.1604 39.3004 0001217 81.6014 10.4018 15.31691688 5757
Epoch: Apr 17, 2026 • Age: 13 hours

Current Status

Altitude 476.4 km
Velocity 7.63 km/s
Sub-Earth Point 52.30°N, 108.21°E
Launch Date Mar 4, 2021
Age 5.1 years
Type internet

Technical Details

Classification Payload
Mass 260.00 kg
Dry Mass 248.00 kg
Total Mass 260.00 kg
Length 0.20 m
Diameter 2.80 m
Span 9.00 m
Shape Box + pan
Manufacturer SPXS
Bus Type Starlink
Phase Status In Orbit
Owner/State SPXS/US

Most Searched